Regional Weather Roundup
Issued by NWS

Home | Current Version | Previous Version | Graphics & Text | Print | Product List | Glossary On
Versions: 1 2 3 4 5 6 7 8 9 10 11 12 13 14 15 16 17 18 19 20 21 22 23 24 25 26 27 28 29 30 31 32 33 34 35 36 37 38 39 40 41 42 43 44 45 46 47 48 49 50
000
ASUS43 KDMX 281807
RWRIA

WEATHER ROUNDUP FOR IOWA
NATIONAL WEATHER SERVICE DES MOINES IA
1200 PM CST WED JAN 28 2015

NOTE: "FAIR" INDICATES FEW OR NO CLOUDS BELOW 12,000 FEET WITH NO
SIGNIFICANT WEATHER AND/OR OBSTRUCTIONS TO VISIBILITY.

* - THESE STATIONS ARE NOT NWS STATIONS...THUS NOT UNDER NWS
QUALITY CONTROL.  THEY ALSO DO NOT REPORT WEATHER SUCH
AS PRECIPITATION OR FOG.

IAZ001>003-012>014-020>022-031>034-043>046-281900-
   NORTHWEST IOWA

CITY           SKY/WX    TMP DP  RH WIND       PRES   REMARKS
CARROLL *      SUNNY     39  34  81 SE17      29.80F WCI  30
CHEROKEE *       N/A     36  34  91 S13       29.78F FOG     WCI  27
DENISON *      SUNNY     41  34  75 S14       29.76F
LE MARS *      SUNNY     39  34  81 S15       29.75F WCI  31
ORANGE CITY *  MOSUNNY   37  30  75 S10       29.74F WCI  30
SHELDON *      PTSUNNY   34  34 100 SE16      29.76F FOG     WCI  23
SIOUX CITY       N/A     42  33  70 SE13      29.76F
6HR MIN TEMP:  31; 6HR MAX TEMP:  42;

SPENCER        CLOUDY    33  30  88 SE16G25   29.79F FOG     WCI  23
6HR MIN TEMP:  31; 6HR MAX TEMP:  33;

STORM LAKE *   PTSUNNY   34  32  93 SE16      29.78F FOG     WCI  23
$$

IAZ055>058-069>071-079>083-090>094-281900-
   SOUTHWEST IOWA

CITY           SKY/WX    TMP DP  RH WIND       PRES   REMARKS
ATLANTIC *     SUNNY     43  34  70 S12G17    29.79F
AUDUBON *      SUNNY     43  36  75 S13       29.80F
CLARINDA *     SUNNY     52  36  54 SE12      29.80F
COUNCIL BLFS * SUNNY     46  34  61 S12       29.75F
CRESTON *      SUNNY     43  36  75 SE17      29.82F
HARLAN  *      SUNNY     43  37  81 SE12G17   29.81F
LAMONI           N/A     45  34  65 S14G23    29.85F
6HR MIN TEMP:  29; 6HR MAX TEMP:  45;

RED OAK *      SUNNY     48  34  57 SE14      29.77F
SHENANDOAH *   SUNNY     54  36  50 SE13      29.78F
$$

IAZ047>049-059>061-072>074-084-281900-
   CENTRAL IOWA

CITY           SKY/WX    TMP DP  RH WIND       PRES   REMARKS
AMES             N/A     36  29  75 SE17G24   29.87F WCI  26
6HR MIN TEMP:  29; 6HR MAX TEMP:  36;

ANKENY *       SUNNY     41  32  70 S15G24    29.88F
CHARITON *     SUNNY     43  34  70 S20       29.88F
DES MOINES     CLOUDY    41  32  70 S15       29.88F
6HR MIN TEMP:  30; 6HR MAX TEMP:  41;

GRINNELL*        N/A     37  32  81 SE22G30   29.91F WCI  27
KNOXVILLE *    SUNNY     41  32  70 S16G23    29.88F
MARSHALLTOWN     N/A     36  30  79 SE20G30   29.89F WCI  25
6HR MIN TEMP:  28; 6HR MAX TEMP:  36;

PELLA *          N/A     40  32  74 SE16G22   29.91F WCI  31
PERRY *          N/A     38  33  81 SE14      29.84F WCI  30
$$

IAZ004>006-015-016-023>025-035-036-281900-
   NORTH CENTRAL IOWA

CITY           SKY/WX    TMP DP  RH WIND       PRES   REMARKS
ALGONA *       PTSUNNY   32  32 100 SE20G30   29.83F FOG     WCI  20
CLARION *      CLOUDY    32  32 100 SE18G28   29.86F FOG     WCI  20
ESTHERVILLE    CLOUDY    31  30  96 S20G25    29.81F FOG     WCI  19
6HR MIN TEMP:  29; 6HR MAX TEMP:  31;

FORT DODGE *   CLOUDY    34  28  80 SE9G17    29.85F WCI  26
MASON CITY     CLOUDY    31  30  96 SE21G28   29.88F FOG     WCI  18
6HR MIN TEMP:  27; 6HR MAX TEMP:  31; 6HR PCP: TRACE;

FOREST CITY *  CLOUDY    32  32 100 SE21G26   29.86F FOG     WCI  20
IOWA FALLS *   CLOUDY    34  30  86 SE12      29.89F WCI  25
$$

IAZ007>011-017>019-026>030-037>042-050>054-066-281900-
   NORTHEAST IOWA

CITY           SKY/WX    TMP DP  RH WIND       PRES   REMARKS
CEDAR RAPIDS     N/A     35  28  75 SE18G24   29.96F WCI  24
6HR MIN TEMP:  27; 6HR MAX TEMP:  35;

CHARLES CITY * CLOUDY    32  32 100 SE17G23   29.92F FOG     WCI  21
CLINTON *        N/A     30  19  64 SE18G25   30.10F WCI  18
DECORAH *      CLOUDY    32  28  86 SE13G22   29.97F WCI  22
DUBUQUE          N/A     29  20  69 SE18      30.04F WCI  16
6HR MIN TEMP:  25; 6HR MAX TEMP:  29;

MONTICELLO *   SUNNY     30  25  80 SE17G25   30.01F WCI  18
OELWEIN *      SUNNY     32  28  86 SE23      29.96F WCI  19
WATERLOO       PTSUNNY   36  29  75 SE16G23   29.94F WCI  26
6HR MIN TEMP:  26; 6HR MAX TEMP:  36;

$$

IAZ064-065-067-068-078-281900-
   EAST CENTRAL IOWA

CITY           SKY/WX    TMP DP  RH WIND       PRES   REMARKS
DAVENPORT        N/A     32  22  66 SE23G30   30.05F WCI  19
6HR MIN TEMP:  26; 6HR MAX TEMP:  32;

IOWA CITY        N/A     34  28  79 SE20G28   30.01F WCI  23
6HR MIN TEMP:  27; 6HR MAX TEMP:  34;

MT. PLEASANT *   N/A     38  31  76 SE24      30.00F WCI  26
MUSCATINE *    SUNNY     36  27  69 SE15G21   30.03F WCI  26
QUAD CITIES      N/A     32  24  72 SE15G23   30.06F WCI  22
6HR MIN TEMP:  24; 6HR MAX TEMP:  32;

$$

IAZ062-063-075>077-085>089-095>099-281900-
   SOUTHEAST IOWA

CITY           SKY/WX    TMP DP  RH WIND       PRES   REMARKS
BURLINGTON       N/A     39  30  70 SE18      30.02F WCI  30
6HR MIN TEMP:  27; 6HR MAX TEMP:  39;

FAIRFIELD *    SUNNY     39  30  70 S18G28    29.97F WCI  30
FORT MADISON * MOSUNNY   37  30  75 SE20G26   30.03F WCI  27
KEOKUK *       SUNNY     41  32  70 S18G31    30.01F
OSKALOOSA *      N/A     38  32  77 S17G24    29.93F WCI  29
CENTERVILLE *  SUNNY     43  34  70 SE16      29.93F
OTTUMWA          N/A     39  31  72 SE18G30   29.93F WCI  30
6HR MIN TEMP:  28; 6HR MAX TEMP:  40;

WASHINGTON *   SUNNY     39  36  87 SE22      29.97F WCI  29
$$

ABBREVIATIONS USED IN REMARKS
   TC - TEMPERATURES IN CELSIUS
  WCI - WIND CHILL INDEX
   HX - HEAT INDEX
  VSB - VISIBILITY
$$



USA.gov is the U.S. government's official web portal to all federal, state and local government web resources and services.